TUI7258 EDDS-LIRP

Flight info

Callsign TUI7258
Flight time 0h 58m
Altitude 33000
Route KUNOD2H KUNOD Y326 MOMUK L607 XEBIX Y740 TIRUL M738 LORLO Q49 MOVOR DCT RUVUK DCT MIVKI
Aircraft B738/M-SDGIJ1LRWY/SB1

Departure

Time 2026-04-30 19:02
Airport Stuttgart Airport (EDDS)

Arrival

Time 2026-04-30 20:00
Airport Pisa International Airport (LIRP)
Time Latitude Longitude Altitude Speed Heading
2026-04-30 18:32 48.69176 9.20556 1276 ft 0 kts 344°
2026-04-30 18:53 48.69170 9.20559 1275 ft 2 kts 344°
2026-04-30 18:54 48.69156 9.20565 1275 ft 0 kts 344°
2026-04-30 18:54 48.69146 9.20570 1275 ft 2 kts 321°
2026-04-30 18:54 48.69137 9.20588 1274 ft 2 kts 287°
2026-04-30 18:54 48.69136 9.20609 1273 ft 0 kts 257°
2026-04-30 18:55 48.69138 9.20617 1272 ft 1 kts 251°
2026-04-30 18:55 48.69139 9.20621 1272 ft 0 kts 252°
2026-04-30 18:57 48.69136 9.20609 1272 ft 2 kts 252°
2026-04-30 18:57 48.69132 9.20590 1274 ft 1 kts 252°
2026-04-30 18:57 48.69130 9.20577 1274 ft 1 kts 252°
2026-04-30 18:58 48.69112 9.20511 1277 ft 6 kts 235°
2026-04-30 18:58 48.69062 9.20480 1278 ft 11 kts 150°
2026-04-30 18:58 48.68980 9.20600 1271 ft 20 kts 131°
2026-04-30 18:59 48.68857 9.20857 1259 ft 11 kts 104°
2026-04-30 19:00 48.68853 9.20882 1259 ft 2 kts 104°
2026-04-30 19:00 48.68838 9.20969 1257 ft 14 kts 103°
2026-04-30 19:00 48.68870 9.21571 1242 ft 70 kts 74°
2026-04-30 19:01 48.69329 9.24044 1331 ft 155 kts 76°
2026-04-30 19:01 48.69614 9.25643 1751 ft 160 kts 76°
2026-04-30 19:02 48.70178 9.28800 2845 ft 156 kts 77°
2026-04-30 19:02 48.70805 9.32301 3568 ft 186 kts 77°
2026-04-30 19:03 48.71505 9.36277 4646 ft 207 kts 78°
2026-04-30 19:03 48.72264 9.40501 6091 ft 210 kts 76°
2026-04-30 19:04 48.72834 9.44807 7345 ft 219 kts 99°
2026-04-30 19:04 48.71133 9.48903 8480 ft 244 kts 141°
2026-04-30 19:05 48.67841 9.50714 9551 ft 271 kts 163°
2026-04-30 19:05 48.64038 9.51920 10584 ft 287 kts 165°
2026-04-30 19:06 48.59901 9.53252 11049 ft 325 kts 165°
2026-04-30 19:06 48.57611 9.54008 11276 ft 345 kts 165°
2026-04-30 19:06 48.52845 9.55582 12493 ft 359 kts 164°
2026-04-30 19:07 48.47952 9.57204 13864 ft 368 kts 164°
2026-04-30 19:07 48.45453 9.58032 14533 ft 372 kts 164°
2026-04-30 19:08 48.40336 9.59726 15841 ft 381 kts 164°
2026-04-30 19:08 48.35122 9.61450 17041 ft 391 kts 164°
2026-04-30 19:08 48.32501 9.62460 17623 ft 393 kts 159°
2026-04-30 19:09 48.27294 9.65200 18791 ft 400 kts 158°
2026-04-30 19:09 48.24635 9.66386 19335 ft 406 kts 163°
2026-04-30 19:09 48.21872 9.67310 19946 ft 408 kts 162°
2026-04-30 19:10 48.17072 9.71490 21017 ft 402 kts 136°
2026-04-30 19:10 48.12595 9.76661 21969 ft 412 kts 140°
2026-04-30 19:11 48.10239 9.79131 22425 ft 417 kts 140°
2026-04-30 19:11 48.05461 9.84036 23338 ft 423 kts 141°
2026-04-30 19:11 48.03032 9.86489 23780 ft 426 kts 141°
2026-04-30 19:12 48.00552 9.88972 24241 ft 428 kts 141°
2026-04-30 19:12 47.98072 9.91443 24673 ft 431 kts 141°
2026-04-30 19:12 47.95585 9.93912 25098 ft 433 kts 141°
2026-04-30 19:13 47.90562 9.98876 25916 ft 438 kts 141°
2026-04-30 19:13 47.85459 10.03895 26673 ft 442 kts 141°
2026-04-30 19:13 47.82898 10.06408 27051 ft 443 kts 141°
2026-04-30 19:14 47.80337 10.08915 27448 ft 444 kts 141°
2026-04-30 19:14 47.77762 10.11434 27807 ft 445 kts 141°
2026-04-30 19:14 47.75186 10.13950 28121 ft 447 kts 141°
2026-04-30 19:14 47.72571 10.16500 28484 ft 448 kts 141°
2026-04-30 19:15 47.69994 10.19008 28796 ft 450 kts 140°
2026-04-30 19:15 47.64747 10.24110 29396 ft 453 kts 140°
2026-04-30 19:15 47.62129 10.26650 29607 ft 457 kts 140°
2026-04-30 19:16 47.59455 10.29243 29882 ft 458 kts 140°
2026-04-30 19:16 47.56817 10.31796 30135 ft 460 kts 140°
2026-04-30 19:16 47.51463 10.36964 30822 ft 459 kts 140°
2026-04-30 19:17 47.48782 10.39548 31130 ft 459 kts 140°
2026-04-30 19:17 47.43441 10.44608 31735 ft 463 kts 143°
2026-04-30 19:17 47.40555 10.46699 32021 ft 470 kts 152°
2026-04-30 19:18 47.35213 10.48646 32509 ft 481 kts 168°
2026-04-30 19:18 47.30769 10.49228 32913 ft 482 kts 170°
2026-04-30 19:18 47.27476 10.49681 33174 ft 482 kts 169°
2026-04-30 19:19 47.24132 10.50191 33233 ft 485 kts 169°
2026-04-30 19:19 47.14113 10.51663 33237 ft 482 kts 171°
2026-04-30 19:20 47.07478 10.52719 33237 ft 480 kts 167°
2026-04-30 19:21 46.97951 10.56564 33265 ft 476 kts 158°
2026-04-30 19:22 46.85300 10.62147 33264 ft 475 kts 158°
2026-04-30 19:23 46.65997 10.68783 33264 ft 483 kts 171°
2026-04-30 19:24 46.56043 10.70486 33264 ft 482 kts 171°
2026-04-30 19:25 46.39467 10.73209 33290 ft 482 kts 171°
2026-04-30 19:26 46.26185 10.75350 33291 ft 482 kts 171°
2026-04-30 19:27 46.16120 10.76964 33291 ft 491 kts 172°
2026-04-30 19:28 46.06000 10.78574 33291 ft 489 kts 172°
2026-04-30 19:29 45.92513 10.80712 33291 ft 489 kts 172°
2026-04-30 19:30 45.78983 10.81237 33292 ft 492 kts 190°
2026-04-30 19:31 45.65805 10.76669 33291 ft 484 kts 194°
2026-04-30 19:31 45.56036 10.73279 33291 ft 484 kts 194°
2026-04-30 19:32 45.49500 10.71004 33291 ft 483 kts 194°
2026-04-30 19:32 45.43038 10.68757 33291 ft 483 kts 194°
2026-04-30 19:33 45.36487 10.66481 33291 ft 484 kts 194°
2026-04-30 19:33 45.29984 10.64226 33291 ft 484 kts 194°
2026-04-30 19:34 45.23478 10.61975 33128 ft 486 kts 195°
2026-04-30 19:34 45.17009 10.59742 32622 ft 477 kts 195°
2026-04-30 19:35 45.13786 10.58631 32373 ft 476 kts 195°
2026-04-30 19:35 45.10595 10.57532 32126 ft 477 kts 195°
2026-04-30 19:35 45.07376 10.56424 31876 ft 477 kts 195°
2026-04-30 19:35 45.04155 10.55318 31627 ft 477 kts 195°
2026-04-30 19:36 45.00932 10.54211 31378 ft 478 kts 195°
2026-04-30 19:36 44.97719 10.53110 31129 ft 478 kts 195°
2026-04-30 19:36 44.91391 10.50443 30626 ft 474 kts 204°
2026-04-30 19:37 44.88409 10.48600 30379 ft 472 kts 206°
2026-04-30 19:37 44.85421 10.46683 30126 ft 469 kts 206°
2026-04-30 19:37 44.82481 10.44837 29877 ft 468 kts 205°
2026-04-30 19:37 44.79501 10.42977 29625 ft 466 kts 206°
2026-04-30 19:38 44.76554 10.41124 29373 ft 464 kts 206°
2026-04-30 19:38 44.73650 10.39290 29126 ft 462 kts 206°
2026-04-30 19:38 44.70729 10.37444 28873 ft 458 kts 207°
2026-04-30 19:38 44.67844 10.35620 28622 ft 455 kts 207°
2026-04-30 19:39 44.64987 10.33814 28374 ft 453 kts 206°
2026-04-30 19:39 44.62121 10.32002 28123 ft 452 kts 206°
2026-04-30 19:39 44.59277 10.30204 27874 ft 451 kts 206°
2026-04-30 19:39 44.56444 10.28416 27625 ft 449 kts 206°
2026-04-30 19:40 44.53606 10.26625 27375 ft 447 kts 206°
2026-04-30 19:40 44.50780 10.24844 27124 ft 445 kts 206°
2026-04-30 19:40 44.47958 10.23066 26873 ft 444 kts 206°
2026-04-30 19:40 44.45153 10.21300 26623 ft 443 kts 206°
2026-04-30 19:41 44.42353 10.19539 26372 ft 442 kts 206°
2026-04-30 19:41 44.39578 10.17797 25848 ft 437 kts 206°
2026-04-30 19:41 44.36837 10.16078 25233 ft 433 kts 206°
2026-04-30 19:41 44.34101 10.14363 24621 ft 430 kts 206°
2026-04-30 19:42 44.31425 10.12687 24017 ft 427 kts 206°
2026-04-30 19:42 44.28731 10.11002 23404 ft 424 kts 206°
2026-04-30 19:42 44.26054 10.09328 22795 ft 420 kts 206°
2026-04-30 19:42 44.23403 10.07711 22184 ft 418 kts 204°
2026-04-30 19:43 44.20669 10.06373 21567 ft 416 kts 198°
2026-04-30 19:43 44.17891 10.05312 20950 ft 414 kts 197°
2026-04-30 19:43 44.15143 10.04263 20345 ft 410 kts 197°
2026-04-30 19:44 44.09730 10.02134 19149 ft 403 kts 197°
2026-04-30 19:44 44.07082 10.01102 18593 ft 399 kts 197°
2026-04-30 19:44 44.04432 10.00070 18010 ft 395 kts 197°
2026-04-30 19:44 44.01810 9.99051 17424 ft 391 kts 197°
2026-04-30 19:45 43.99217 9.98045 16842 ft 388 kts 197°
2026-04-30 19:45 43.96628 9.97043 16258 ft 385 kts 197°
2026-04-30 19:45 43.94073 9.96054 15679 ft 381 kts 197°
2026-04-30 19:45 43.91543 9.95077 15106 ft 378 kts 196°
2026-04-30 19:46 43.89043 9.94112 14532 ft 375 kts 196°
2026-04-30 19:46 43.86542 9.93148 13958 ft 372 kts 196°
2026-04-30 19:46 43.84059 9.92192 13384 ft 368 kts 195°
2026-04-30 19:46 43.81620 9.91253 12818 ft 365 kts 195°
2026-04-30 19:47 43.79189 9.90319 12251 ft 362 kts 195°
2026-04-30 19:47 43.77585 9.89702 11877 ft 360 kts 195°
2026-04-30 19:47 43.74433 9.88492 11136 ft 355 kts 195°
2026-04-30 19:47 43.72057 9.87582 10780 ft 345 kts 195°
2026-04-30 19:48 43.69803 9.86718 10593 ft 332 kts 195°
2026-04-30 19:48 43.67627 9.85915 10460 ft 318 kts 191°
2026-04-30 19:48 43.65494 9.85801 10222 ft 307 kts 168°
2026-04-30 19:48 43.63557 9.86894 9858 ft 299 kts 145°
2026-04-30 19:49 43.61819 9.88419 9477 ft 297 kts 147°
2026-04-30 19:49 43.58319 9.91206 8954 ft 283 kts 147°
2026-04-30 19:49 43.56648 9.92570 8766 ft 270 kts 147°
2026-04-30 19:50 43.55099 9.93834 8667 ft 251 kts 147°
2026-04-30 19:50 43.53660 9.95012 8479 ft 235 kts 147°
2026-04-30 19:50 43.52258 9.96163 8005 ft 233 kts 147°
2026-04-30 19:50 43.50893 9.97283 7567 ft 230 kts 146°
2026-04-30 19:51 43.49508 9.98419 7152 ft 228 kts 146°
2026-04-30 19:51 43.48164 9.99521 6827 ft 226 kts 146°
2026-04-30 19:51 43.46891 10.00729 6450 ft 223 kts 130°
2026-04-30 19:51 43.45957 10.02416 6120 ft 218 kts 122°
2026-04-30 19:52 43.45077 10.04086 5774 ft 218 kts 123°
2026-04-30 19:52 43.44172 10.05763 5427 ft 216 kts 123°
2026-04-30 19:52 43.43290 10.07397 5091 ft 215 kts 123°
2026-04-30 19:52 43.42484 10.09128 4728 ft 212 kts 108°
2026-04-30 19:53 43.42348 10.11069 4377 ft 204 kts 74°
2026-04-30 19:53 43.43030 10.12687 4057 ft 198 kts 43°
2026-04-30 19:53 43.44040 10.13932 4033 ft 197 kts 42°
2026-04-30 19:53 43.45058 10.15231 4021 ft 199 kts 44°
2026-04-30 19:54 43.46104 10.16489 4021 ft 200 kts 39°
2026-04-30 19:54 43.47201 10.17661 4020 ft 200 kts 37°
2026-04-30 19:54 43.48308 10.18808 4021 ft 200 kts 37°
2026-04-30 19:54 43.49424 10.19953 4021 ft 200 kts 37°
2026-04-30 19:55 43.50491 10.21046 4033 ft 181 kts 37°
2026-04-30 19:55 43.51458 10.22036 3912 ft 170 kts 37°
2026-04-30 19:55 43.52399 10.22999 3719 ft 168 kts 37°
2026-04-30 19:55 43.53337 10.23960 3504 ft 168 kts 37°
2026-04-30 19:56 43.54274 10.24921 3273 ft 168 kts 38°
2026-04-30 19:56 43.55206 10.25876 3040 ft 163 kts 38°
2026-04-30 19:56 43.56088 10.26781 2817 ft 157 kts 39°
2026-04-30 19:56 43.56974 10.27691 2601 ft 159 kts 39°
2026-04-30 19:57 43.57858 10.28599 2380 ft 160 kts 39°
2026-04-30 19:57 43.58754 10.29519 2157 ft 160 kts 39°
2026-04-30 19:57 43.59652 10.30441 1934 ft 161 kts 39°
2026-04-30 19:57 43.60531 10.31345 1729 ft 157 kts 40°
2026-04-30 19:58 43.61359 10.32196 1509 ft 142 kts 40°
2026-04-30 19:58 43.62151 10.33012 1326 ft 144 kts 40°
2026-04-30 19:58 43.62961 10.33840 1135 ft 144 kts 40°
2026-04-30 19:58 43.63765 10.34643 944 ft 145 kts 39°
2026-04-30 19:59 43.64594 10.35467 756 ft 145 kts 41°
2026-04-30 19:59 43.65393 10.36315 565 ft 145 kts 43°
2026-04-30 19:59 43.66984 10.37974 167 ft 146 kts 40°
2026-04-30 20:00 43.67800 10.38818 11 ft 136 kts 39°
2026-04-30 20:00 43.68426 10.39481 9 ft 89 kts 36°
2026-04-30 20:00 43.68844 10.39908 9 ft 62 kts 37°
2026-04-30 20:00 43.69099 10.40175 9 ft 31 kts 38°
2026-04-30 20:01 43.69315 10.40230 9 ft 13 kts 307°
2026-04-30 20:01 43.69365 10.40136 9 ft 11 kts 307°
2026-04-30 20:01 43.69424 10.40096 9 ft 8 kts 348°
2026-04-30 20:02 43.69545 10.40072 10 ft 11 kts 353°
2026-04-30 20:02 43.69630 10.40057 12 ft 10 kts 352°
2026-04-30 20:03 43.69741 10.40088 13 ft 4 kts
2026-04-30 20:03 43.69758 10.40091 13 ft 0 kts